BAW81E EGPH-EGCC

Flight info

Callsign BAW81E
Flight time N/A
Altitude 23000
Route GOSAM P600 FENIK L612 LAKEY
Aircraft A35K/H-SDE2E3GHIJ3J4J5LM1ORWXY/LB1D1

Departure

Time N/A
Airport Edinburgh Airport (EGPH)

Arrival

Time 2026-05-03 20:23
Airport Manchester Airport (EGCC)
Time Latitude Longitude Altitude Speed Heading
2026-05-03 20:15 53.50475 -2.44627 7949 ft 279 kts 210°
2026-05-03 20:15 53.48802 -2.46222 7569 ft 276 kts 210°
2026-05-03 20:15 53.47127 -2.47822 7063 ft 277 kts 210°
2026-05-03 20:15 53.45471 -2.49408 6606 ft 277 kts 210°
2026-05-03 20:16 53.43792 -2.51019 6156 ft 277 kts 210°
2026-05-03 20:16 53.42119 -2.52632 5648 ft 277 kts 210°
2026-05-03 20:16 53.40472 -2.54229 5174 ft 276 kts 210°
2026-05-03 20:16 53.38817 -2.55840 4737 ft 275 kts 210°
2026-05-03 20:17 53.37163 -2.57451 4270 ft 274 kts 210°
2026-05-03 20:17 53.35404 -2.58638 4032 ft 273 kts 188°
2026-05-03 20:17 53.33533 -2.58476 4002 ft 270 kts 165°
2026-05-03 20:17 53.31732 -2.57605 3913 ft 266 kts 160°
2026-05-03 20:18 53.29976 -2.56651 3469 ft 265 kts 160°
2026-05-03 20:18 53.28219 -2.55709 3096 ft 264 kts 160°
2026-05-03 20:18 53.26510 -2.54705 2991 ft 263 kts 151°
2026-05-03 20:18 53.25151 -2.52787 2995 ft 248 kts 121°
2026-05-03 20:19 53.24720 -2.50237 2998 ft 213 kts 82°
2026-05-03 20:19 53.25189 -2.48133 3017 ft 181 kts 52°
2026-05-03 20:19 53.26037 -2.46687 3046 ft 172 kts 45°
2026-05-03 20:19 53.26791 -2.45147 2819 ft 171 kts 54°
2026-05-03 20:20 53.27509 -2.43599 2549 ft 171 kts 50°
2026-05-03 20:20 53.28271 -2.42080 2306 ft 171 kts 51°
2026-05-03 20:20 53.29020 -2.40540 2055 ft 166 kts 51°
2026-05-03 20:20 53.29710 -2.39122 1840 ft 151 kts 51°
2026-05-03 20:21 53.30364 -2.37780 1656 ft 148 kts 50°
2026-05-03 20:21 53.31011 -2.36453 1447 ft 147 kts 51°
2026-05-03 20:21 53.31657 -2.35125 1231 ft 148 kts 50°
2026-05-03 20:21 53.32338 -2.33727 1014 ft 183 kts 50°
2026-05-03 20:22 53.33205 -2.31958 716 ft 190 kts 49°
2026-05-03 20:22 53.33992 -2.30344 480 ft 166 kts 51°
2026-05-03 20:22 53.34685 -2.28926 295 ft 146 kts 50°
2026-05-03 20:22 53.35279 -2.27696 245 ft 119 kts 52°
2026-05-03 20:23 53.35530 -2.27178 256 ft 16 kts 51°
2026-05-03 20:23 53.35579 -2.27078 261 ft 0 kts 46°
2026-05-03 20:23 53.35583 -2.27071 262 ft 6 kts 45°